CW2551 Weather Reports


time (UTC)temp
F
wind
direction
speed
knots
gust
knots
rain 1hr
in
rain 24hr
in
rain mn
in
humidity
%
barometer
mb
20210723161605 66 310 0.0 0.0 0.00 0.00 0.00 53 1020.6
20210723161105 65 309 0.9 1.7 0.00 0.00 0.00 50 1020.7
20210723161015 66 318 0.0 1.7 0.00 0.00 0.00 47 1020.7
20210723160605 66 318 0.0 1.7 0.00 0.00 0.00 47 1020.7
20210723160105 66 318 0.9 2.6 0.00 0.00 0.00 46 1020.7
20210723160015 65 317 0.0 1.7 0.00 0.00 0.00 51 1020.7
20210723155605 65 317 0.0 1.7 0.00 0.00 0.00 51 1020.7
20210723155105 64 313 0.0 0.0 0.00 0.00 0.00 51 1020.8
20210723155015 64 313 0.0 0.0 0.00 0.00 0.00 52 1020.6
20210723154605 64 313 0.0 0.0 0.00 0.00 0.00 52 1020.6
20210723154105 63 314 0.0 0.0 0.00 0.00 0.00 54 1020.6
20210723154015 63 314 0.0 0.0 0.00 0.00 0.00 53 1020.7
20210723153606 63 314 0.0 0.0 0.00 0.00 0.00 53 1020.7
20210723153105 62 314 0.0 0.0 0.00 0.00 0.00 57 1020.6
20210723153014 62 314 0.0 0.0 0.00 0.00 0.00 54 1020.6
20210723152605 62 314 0.0 0.0 0.00 0.00 0.00 54 1020.6
20210723152106 62 315 0.0 0.0 0.00 0.00 0.00 52 1020.6
20210723152015 61 315 0.0 0.0 0.00 0.00 0.00 56 1020.7
20210723151605 61 315 0.0 0.0 0.00 0.00 0.00 56 1020.7
20210723151105 61 315 0.0 0.0 0.00 0.00 0.00 52 1020.7
20210723151016 61 315 0.0 0.0 0.00 0.00 0.00 55 1020.7
20210723150605 61 315 0.0 0.0 0.00 0.00 0.00 55 1020.7
20210723150106 60 315 0.0 0.0 0.00 0.00 0.00 55 1020.7
20210723150016 59 315 0.0 0.0 0.00 0.00 0.00 56 1020.7
20210723145605 59 315 0.0 0.0 0.00 0.00 0.00 56 1020.7
20210723145105 59 315 0.0 0.0 0.00 0.00 0.00 58 1020.6
20210723145015 59 315 0.0 0.0 0.00 0.00 0.00 56 1020.7
20210723144606 59 315 0.0 0.0 0.00 0.00 0.00 56 1020.7
20210723144105 59 315 0.0 0.0 0.00 0.00 0.00 56 1020.6
20210723144015 58 315 0.0 0.0 0.00 0.00 0.00 57 1020.5
20210723143605 58 315 0.0 0.0 0.00 0.00 0.00 57 1020.5
20210723143105 57 315 0.0 0.0 0.00 0.00 0.00 58 1020.4
20210723143014 57 314 0.0 0.0 0.00 0.00 0.00 62 1020.4
20210723142605 57 314 0.0 0.0 0.00 0.00 0.00 62 1020.4
20210723142105 56 314 0.0 0.0 0.00 0.00 0.00 63 1020.5
20210723142014 55 327 0.0 0.9 0.00 0.00 0.00 67 1020.5
20210723141604 55 327 0.0 0.9 0.00 0.00 0.00 67 1020.5
20210723141105 54 330 0.0 0.0 0.00 0.00 0.00 70 1020.5
20210723141015 54 330 0.0 0.0 0.00 0.00 0.00 71 1020.5
20210723140605 54 330 0.0 0.0 0.00 0.00 0.00 71 1020.5
20210723140104 53 330 0.0 0.0 0.00 0.00 0.00 72 1020.4
20210723140014 53 330 0.0 0.0 0.00 0.00 0.00 73 1020.3
20210723135605 53 330 0.0 0.0 0.00 0.00 0.00 73 1020.3
20210723135105 52 330 0.0 0.0 0.00 0.00 0.00 75 1020.3
20210723135014 51 330 0.0 0.0 0.00 0.00 0.00 74 1020.3
20210723134605 51 330 0.0 0.0 0.00 0.00 0.00 74 1020.3
20210723134105 50 330 0.0 0.0 0.00 0.00 0.00 76 1020.3
20210723134014 50 330 0.0 0.0 0.00 0.00 0.00 77 1020.2
20210723133605 50 330 0.0 0.0 0.00 0.00 0.00 77 1020.2
20210723133105 50 330 0.0 0.0 0.00 0.00 0.00 75 1020.1
20210723133014 50 330 0.0 0.0 0.00 0.00 0.00 76 1020.0
20210723132605 50 330 0.0 0.0 0.00 0.00 0.00 76 1020.0
20210723132105 50 330 0.0 0.0 0.00 0.00 0.00 76 1020.0
20210723132014 50 330 0.0 0.0 0.00 0.00 0.00 75 1019.9
20210723131605 50 330 0.0 0.0 0.00 0.00 0.00 75 1019.9
20210723131105 50 330 0.0 0.0 0.00 0.00 0.00 76 1019.8
20210723131014 49 330 0.0 0.0 0.00 0.00 0.00 76 1019.9
20210723130606 49 330 0.0 0.0 0.00 0.00 0.00 76 1019.9
20210723130105 49 330 0.0 0.0 0.00 0.00 0.00 74 1019.9
20210723130014 50 330 0.0 0.0 0.00 0.00 0.00 74 1019.8
20210723125605 50 330 0.0 0.0 0.00 0.00 0.00 74 1019.8
20210723125105 50 330 0.0 0.0 0.00 0.00 0.00 75 1019.9
20210723125014 49 330 0.0 0.0 0.00 0.00 0.00 75 1019.9
20210723124605 49 330 0.0 0.0 0.00 0.00 0.00 75 1019.9
20210723124105 49 330 0.0 0.0 0.00 0.00 0.00 73 1019.9
20210723124014 50 330 0.0 0.0 0.00 0.00 0.00 73 1019.8
20210723123605 50 330 0.0 0.0 0.00 0.00 0.00 73 1019.8
20210723123105 50 330 0.0 0.0 0.00 0.00 0.00 73 1019.7
20210723123014 50 330 0.0 0.0 0.00 0.00 0.00 72 1019.8
20210723122605 50 330 0.0 0.0 0.00 0.00 0.00 72 1019.8
20210723122105 50 330 0.0 0.0 0.00 0.00 0.00 72 1019.7
20210723122014 50 330 0.0 0.0 0.00 0.00 0.00 72 1019.7
20210723121605 50 330 0.0 0.0 0.00 0.00 0.00 72 1019.7
20210723121105 50 330 0.0 0.0 0.00 0.00 0.00 72 1019.8
20210723121014 50 330 0.0 0.0 0.00 0.00 0.00 72 1019.8
20210723120604 50 330 0.0 0.0 0.00 0.00 0.00 72 1019.8
20210723120105 50 330 0.0 0.0 0.00 0.00 0.00 72 1019.7
20210723120014 49 330 0.0 0.0 0.00 0.00 0.00 72 1019.7
20210723115604 49 330 0.0 0.0 0.00 0.00 0.00 72 1019.7
20210723115105 49 330 0.0 0.0 0.00 0.00 0.00 72 1019.6
20210723115013 50 330 0.0 0.0 0.00 0.00 0.00 71 1019.6
20210723114605 50 330 0.0 0.0 0.00 0.00 0.00 71 1019.6
20210723114105 50 330 0.0 0.0 0.00 0.00 0.00 71 1019.6
20210723114014 50 330 0.0 0.0 0.00 0.00 0.00 71 1019.6
20210723113605 50 330 0.0 0.0 0.00 0.00 0.00 71 1019.6
20210723113104 50 330 0.0 0.0 0.00 0.00 0.00 70 1019.6
20210723113013 51 330 0.0 0.0 0.00 0.00 0.00 70 1019.6
20210723112605 51 330 0.0 0.0 0.00 0.00 0.00 70 1019.6
20210723112105 51 330 0.0 0.0 0.00 0.00 0.00 70 1019.5
20210723112015 51 330 0.0 0.0 0.00 0.00 0.00 70 1019.5
20210723111605 51 330 0.0 0.0 0.00 0.00 0.00 70 1019.5
20210723111105 51 330 0.0 0.0 0.00 0.00 0.00 69 1019.4
20210723111014 51 330 0.0 0.0 0.00 0.00 0.00 70 1019.3
20210723110605 51 330 0.0 0.0 0.00 0.00 0.00 70 1019.3
20210723110105 50 330 0.0 0.0 0.00 0.00 0.00 69 1019.4
20210723110013 51 330 0.0 0.0 0.00 0.00 0.00 68 1019.4
20210723105604 51 330 0.0 0.0 0.00 0.00 0.00 68 1019.4
20210723105104 51 330 0.0 0.0 0.00 0.00 0.00 67 1019.3
20210723105013 53 330 0.0 0.0 0.00 0.00 0.00 65 1019.2
20210723104605 53 330 0.0 0.0 0.00 0.00 0.00 65 1019.2
20210723104104 52 330 0.0 0.0 0.00 0.00 0.00 66 1019.1
20210723104014 52 330 0.0 0.0 0.00 0.00 0.00 67 1019.1
20210723103604 52 330 0.0 0.0 0.00 0.00 0.00 67 1019.1
20210723103105 52 330 0.0 0.0 0.00 0.00 0.00 66 1019.0
20210723103014 52 330 0.0 0.0 0.00 0.00 0.00 67 1019.0
20210723102605 52 330 0.0 0.0 0.00 0.00 0.00 67 1019.0
20210723102104 52 330 0.0 0.0 0.00 0.00 0.00 65 1019.0
20210723102014 52 330 0.0 0.0 0.00 0.00 0.00 65 1019.0
20210723101605 52 330 0.0 0.0 0.00 0.00 0.00 65 1019.0
20210723101105 52 330 0.0 0.0 0.00 0.00 0.00 67 1019.0
20210723101014 53 330 0.0 0.0 0.00 0.00 0.00 65 1018.9
20210723100605 53 330 0.0 0.0 0.00 0.00 0.00 65 1018.9
20210723100105 53 330 0.0 0.0 0.00 0.00 0.00 65 1018.9
20210723100016 52 330 0.0 0.0 0.00 0.00 0.00 66 1018.9
20210723095604 52 330 0.0 0.0 0.00 0.00 0.00 66 1018.9
20210723095105 52 330 0.0 0.0 0.00 0.00 0.00 65 1018.9
20210723095014 52 330 0.0 0.0 0.00 0.00 0.00 65 1018.9
20210723094605 52 330 0.0 0.0 0.00 0.00 0.00 65 1018.9
20210723094104 53 330 0.0 0.0 0.00 0.00 0.00 62 1018.9
20210723094014 54 330 0.0 0.0 0.00 0.00 0.00 63 1018.9
20210723093604 54 330 0.0 0.0 0.00 0.00 0.00 63 1018.9
20210723093104 53 330 0.0 0.0 0.00 0.00 0.00 63 1018.9
20210723093014 53 330 0.0 0.0 0.00 0.00 0.00 63 1018.9
20210723092605 53 330 0.0 0.0 0.00 0.00 0.00 63 1018.9
20210723092105 54 330 0.0 0.0 0.00 0.00 0.00 63 1018.8
20210723092014 54 330 0.0 0.0 0.00 0.00 0.00 64 1018.8
20210723091605 54 330 0.0 0.0 0.00 0.00 0.00 64 1018.8
20210723091105 53 330 0.0 0.0 0.00 0.00 0.00 64 1018.8
20210723091014 54 330 0.0 0.0 0.00 0.00 0.00 62 1018.9
20210723090605 54 330 0.0 0.0 0.00 0.00 0.00 62 1018.9
20210723090105 55 330 0.0 0.0 0.00 0.00 0.00 62 1018.9
20210723090013 54 330 0.0 0.0 0.00 0.00 0.00 62 1018.8
20210723085604 54 330 0.0 0.0 0.00 0.00 0.00 62 1018.8
20210723085105 56 330 0.0 0.0 0.00 0.00 0.00 59 1018.8
20210723085014 56 330 0.0 0.0 0.00 0.00 0.00 60 1018.8
20210723084605 56 330 0.0 0.0 0.00 0.00 0.00 60 1018.8
20210723084104 55 329 0.0 0.0 0.00 0.00 0.00 61 1018.7
20210723084015 56 329 0.0 0.0 0.00 0.00 0.00 59 1018.7
20210723083604 56 329 0.0 0.0 0.00 0.00 0.00 59 1018.7
20210723083105 57 329 0.0 0.0 0.00 0.00 0.00 59 1018.7
20210723083014 56 329 0.0 0.0 0.00 0.00 0.00 60 1018.7
20210723082605 56 329 0.0 0.0 0.00 0.00 0.00 60 1018.7
20210723082105 56 329 0.0 0.0 0.00 0.00 0.00 61 1018.7
20210723082014 56 329 0.0 0.0 0.00 0.00 0.00 59 1018.7
20210723081605 56 329 0.0 0.0 0.00 0.00 0.00 59 1018.7
20210723081105 56 329 0.0 0.0 0.00 0.00 0.00 59 1018.6
20210723081014 56 329 0.0 0.0 0.00 0.00 0.00 59 1018.6
20210723080605 56 329 0.0 0.0 0.00 0.00 0.00 59 1018.6
20210723080105 57 329 0.0 0.0 0.00 0.00 0.00 58 1018.6
20210723080014 56 329 0.0 0.0 0.00 0.00 0.00 59 1018.6
20210723075605 56 329 0.0 0.0 0.00 0.00 0.00 59 1018.6
20210723075104 56 329 0.0 0.0 0.00 0.00 0.00 58 1018.6
20210723075014 58 329 0.0 0.0 0.00 0.00 0.00 55 1018.5
20210723074605 58 329 0.0 0.0 0.00 0.00 0.00 55 1018.5
20210723074105 58 329 0.0 0.0 0.00 0.00 0.00 54 1018.5
20210723074014 59 329 0.0 0.0 0.00 0.00 0.00 53 1018.5
20210723073604 59 329 0.0 0.0 0.00 0.00 0.00 53 1018.5
20210723073104 59 329 0.0 0.0 0.00 0.00 0.00 51 1018.4
20210723073013 60 329 0.0 0.0 0.00 0.00 0.00 51 1018.4
20210723072604 60 329 0.0 0.0 0.00 0.00 0.00 51 1018.4
20210723072104 60 329 0.0 0.0 0.00 0.00 0.00 51 1018.5
20210723072014 61 329 0.0 0.0 0.00 0.00 0.00 49 1018.4
20210723071605 61 329 0.0 0.0 0.00 0.00 0.00 49 1018.4
20210723071109 62 329 0.0 0.0 0.00 0.00 0.00 46 1018.4
20210723071014 62 329 0.0 0.0 0.00 0.00 0.00 45 1018.3
20210723070605 62 329 0.0 0.0 0.00 0.00 0.00 45 1018.3
20210723070105 62 329 0.0 0.0 0.00 0.00 0.00 45 1018.3
20210723070014 62 329 0.0 0.0 0.00 0.00 0.00 46 1018.3
20210723065605 62 329 0.0 0.0 0.00 0.00 0.00 46 1018.3
20210723065104 62 329 0.0 0.0 0.00 0.00 0.00 45 1018.3
20210723065014 62 329 0.0 0.0 0.00 0.00 0.00 46 1018.3
20210723064605 62 329 0.0 0.0 0.00 0.00 0.00 46 1018.3
20210723064104 62 329 0.0 0.0 0.00 0.00 0.00 47 1018.2
20210723064014 62 329 0.0 0.0 0.00 0.00 0.00 47 1018.2
20210723063605 62 329 0.0 0.0 0.00 0.00 0.00 47 1018.2
20210723063105 61 329 0.0 0.0 0.00 0.00 0.00 48 1018.2
20210723063013 61 329 0.0 0.0 0.00 0.00 0.00 48 1018.1
20210723062605 61 329 0.0 0.0 0.00 0.00 0.00 48 1018.1
20210723062105 62 329 0.0 0.0 0.00 0.00 0.00 46 1018.1
20210723062014 62 329 0.0 0.0 0.00 0.00 0.00 46 1018.1
20210723061605 62 329 0.0 0.0 0.00 0.00 0.00 46 1018.1
20210723061105 63 329 0.0 0.0 0.00 0.00 0.00 47 1018.1
20210723061014 64 329 0.0 0.0 0.00 0.00 0.00 44 1018.0
20210723060604 64 329 0.0 0.0 0.00 0.00 0.00 44 1018.0
20210723060105 64 329 0.0 0.0 0.00 0.00 0.00 44 1017.9
20210723060014 65 329 0.0 0.0 0.00 0.00 0.00 40 1017.9
20210723055606 65 329 0.0 0.0 0.00 0.00 0.00 40 1017.9
20210723055105 65 329 0.0 0.0 0.00 0.00 0.00 40 1017.6
20210723055014 66 329 0.0 0.0 0.00 0.00 0.00 41 1017.5
20210723054605 66 329 0.0 0.0 0.00 0.00 0.00 41 1017.5
20210723054105 65 329 0.0 0.0 0.00 0.00 0.00 42 1017.5
20210723054014 64 329 0.0 0.0 0.00 0.00 0.00 42 1017.4
20210723053604 64 329 0.0 0.0 0.00 0.00 0.00 42 1017.4
20210723053105 64 330 0.0 0.0 0.00 0.00 0.00 45 1017.4
20210723053014 64 330 0.0 0.0 0.00 0.00 0.00 44 1017.4
20210723052605 64 330 0.0 0.0 0.00 0.00 0.00 44 1017.4
20210723052105 64 330 0.0 0.0 0.00 0.00 0.00 45 1017.4
20210723052013 64 330 0.0 0.0 0.00 0.00 0.00 44 1017.2
20210723051605 64 330 0.0 0.0 0.00 0.00 0.00 44 1017.2
20210723051104 65 330 0.0 0.0 0.00 0.00 0.00 44 1017.1
20210723051015 65 330 0.0 0.0 0.00 0.00 0.00 44 1017.0
20210723050604 65 330 0.0 0.0 0.00 0.00 0.00 44 1017.0
20210723050105 67 330 0.0 0.0 0.00 0.00 0.00 41 1016.9
20210723050014 67 330 0.0 0.0 0.00 0.00 0.00 40 1016.9
20210723045605 67 330 0.0 0.0 0.00 0.00 0.00 40 1016.9
20210723045105 68 330 0.0 0.0 0.00 0.00 0.00 40 1016.9
20210723045014 68 330 0.0 0.0 0.00 0.00 0.00 41 1016.9
20210723044605 68 330 0.0 0.0 0.00 0.00 0.00 41 1016.9
20210723044105 68 330 0.0 0.0 0.00 0.00 0.00 39 1016.8
20210723044014 70 330 0.0 0.0 0.00 0.00 0.00 36 1016.7
20210723043605 70 330 0.0 0.0 0.00 0.00 0.00 36 1016.7
20210723043105 72 330 0.0 0.0 0.00 0.00 0.00 34 1016.7
20210723043014 73 331 0.0 0.0 0.00 0.00 0.00 33 1016.6
20210723042604 73 331 0.0 0.0 0.00 0.00 0.00 33 1016.6
20210723042105 74 331 0.0 0.0 0.00 0.00 0.00 31 1016.5
20210723042014 74 331 0.0 1.7 0.00 0.00 0.00 31 1016.4
20210723041605 74 331 0.0 1.7 0.00 0.00 0.00 31 1016.4
20210723041105 75 339 0.0 0.9 0.00 0.00 0.00 29 1016.3
20210723041014 75 337 0.9 2.6 0.00 0.00 0.00 30 1016.2
20210723040605 75 337 0.9 2.6 0.00 0.00 0.00 30 1016.2
20210723040105 74 327 0.0 0.0 0.00 0.00 0.00 30 1016.1
20210723040014 75 327 0.0 0.0 0.00 0.00 0.00 30 1016.1
20210723035605 75 327 0.0 0.0 0.00 0.00 0.00 30 1016.1
20210723035014 77 323 0.9 2.6 0.00 0.00 0.00 27 1016.0
20210723034605 77 323 0.9 2.6 0.00 0.00 0.00 27 1016.0
20210723034105 77 321 0.9 4.3 0.00 0.00 0.00 27 1015.9
20210723034015 77 310 0.0 0.9 0.00 0.00 0.00 26 1015.8
20210723033605 77 310 0.0 0.9 0.00 0.00 0.00 26 1015.8
20210723033105 78 315 0.9 2.6 0.00 0.00 0.00 25 1015.7
20210723033015 78 308 0.0 2.6 0.00 0.00 0.00 25 1015.7
20210723032604 78 308 0.0 2.6 0.00 0.00 0.00 25 1015.7
20210723032104 79 323 1.7 4.3 0.00 0.00 0.00 25 1015.5
20210723032015 79 327 0.9 7.0 0.00 0.00 0.00 25 1015.4
20210723031605 79 327 0.9 7.0 0.00 0.00 0.00 25 1015.4
20210723031105 80 2 0.9 4.3 0.00 0.00 0.00 24 1015.4
20210723031015 80 9 4.3 7.8 0.00 0.00 0.00 24 1015.3
20210723030605 80 9 4.3 7.8 0.00 0.00 0.00 24 1015.3
20210723030105 81 353 2.6 10.4 0.00 0.00 0.00 24 1015.3
20210723030015 81 359 4.3 10.4 0.00 0.00 0.00 23 1015.2
20210723025605 81 359 4.3 10.4 0.00 0.00 0.00 23 1015.2
20210723025105 82 323 2.6 7.8 0.00 0.00 0.00 23 1015.1
20210723025015 82 340 0.9 5.2 0.00 0.00 0.00 22 1014.9
20210723024605 82 340 0.9 5.2 0.00 0.00 0.00 22 1014.9
20210723024105 82 358 1.7 7.8 0.00 0.00 0.00 23 1014.9
20210723024015 82 328 1.7 7.0 0.00 0.00 0.00 22 1014.8
20210723023605 82 328 1.7 7.0 0.00 0.00 0.00 22 1014.8
20210723023104 83 333 2.6 10.4 0.00 0.00 0.00 22 1014.8
20210723023015 83 344 5.2 10.4 0.00 0.00 0.00 21 1014.6
20210723022605 83 344 5.2 10.4 0.00 0.00 0.00 21 1014.6
20210723022104 83 334 2.6 10.4 0.00 0.00 0.00 22 1014.7
20210723022015 83 2 5.2 10.4 0.00 0.00 0.00 22 1014.5
20210723021605 83 2 5.2 10.4 0.00 0.00 0.00 22 1014.5
20210723021105 84 0 4.3 11.3 0.00 0.00 0.00 23 1014.5
20210723021015 84 349 4.3 11.3 0.00 0.00 0.00 23 1014.5
20210723020605 84 349 4.3 11.3 0.00 0.00 0.00 23 1014.5
20210723020105 85 329 1.7 10.4 0.00 0.00 0.00 23 1014.4
20210723020014 85 346 3.5 8.7 0.00 0.00 0.00 23 1014.3
20210723015605 85 346 3.5 8.7 0.00 0.00 0.00 23 1014.3
20210723015104 85 328 3.5 8.7 0.00 0.00 0.00 23 1014.1
20210723015015 85 345 4.3 7.8 0.00 0.00 0.00 23 1014.1
20210723014605 85 345 4.3 7.8 0.00 0.00 0.00 23 1014.1
20210723014105 86 339 3.5 7.8 0.00 0.00 0.00 24 1014.0
20210723014016 86 345 3.5 7.0 0.00 0.00 0.00 22 1014.0
20210723013605 86 345 3.5 7.0 0.00 0.00 0.00 22 1014.0
20210723013105 86 288 0.9 8.7 0.00 0.00 0.00 23 1013.9
20210723013015 86 336 2.6 7.8 0.00 0.00 0.00 23 1013.9
20210723012604 86 336 2.6 7.8 0.00 0.00 0.00 23 1013.9
20210723012105 86 250 1.7 10.4 0.00 0.00 0.00 25 1013.9
20210723012015 87 12 1.7 7.8 0.00 0.00 0.00 22 1013.8
20210723011605 87 12 1.7 7.8 0.00 0.00 0.00 22 1013.8
20210723011105 87 340 3.5 11.3 0.00 0.00 0.00 22 1013.9
20210723011015 87 329 4.3 10.4 0.00 0.00 0.00 22 1013.8
20210723010605 87 329 4.3 10.4 0.00 0.00 0.00 22 1013.8
20210723010105 87 351 4.3 10.4 0.00 0.00 0.00 22 1013.9
20210723010015 87 0 2.6 7.8 0.00 0.00 0.00 24 1013.7
20210723005605 87 0 2.6 7.8 0.00 0.00 0.00 24 1013.7
20210723005105 88 351 4.3 8.7 0.00 0.00 0.00 22 1013.7
20210723005015 87 2 0.9 5.2 0.00 0.00 0.00 25 1013.7
20210723004605 87 2 0.9 5.2 0.00 0.00 0.00 25 1013.7
20210723004105 88 263 3.5 8.7 0.00 0.00 0.00 23 1013.7
20210723004015 88 296 1.7 7.0 0.00 0.00 0.00 24 1013.7
20210723003605 88 296 1.7 7.0 0.00 0.00 0.00 24 1013.7
20210723003105 88 295 3.5 8.7 0.00 0.00 0.00 23 1013.7
20210723003016 88 301 2.6 7.8 0.00 0.00 0.00 23 1013.7
20210723002605 88 301 2.6 7.8 0.00 0.00 0.00 23 1013.7
20210723002104 88 314 1.7 7.0 0.00 0.00 0.00 24 1013.6
20210723002015 89 304 2.6 6.1 0.00 0.00 0.00 24 1013.7
20210723001604 89 304 2.6 6.1 0.00 0.00 0.00 24 1013.7
20210723001105 89 298 4.3 8.7 0.00 0.00 0.00 23 1013.7
20210723001015 89 344 4.3 8.7 0.00 0.00 0.00 24 1013.5
20210723000605 89 344 4.3 8.7 0.00 0.00 0.00 24 1013.5
20210723000105 89 339 3.5 10.4 0.00 0.00 0.00 24 1013.5
20210723000015 89 301 4.3 11.3 0.00 0.00 0.00 24 1013.6
20210722235605 89 301 4.3 11.3 0.00 0.00 0.00 24 1013.6
20210722235104 90 294 4.3 10.4 0.00 0.00 0.00 24 1013.6
20210722235015 89 353 4.3 10.4 0.00 0.00 0.00 24 1013.6
20210722234605 89 353 4.3 10.4 0.00 0.00 0.00 24 1013.6
20210722234105 90 339 3.5 7.0 0.00 0.00 0.00 25 1013.6
20210722234015 89 304 2.6 7.8 0.00 0.00 0.00 27 1013.7
20210722233604 89 304 2.6 7.8 0.00 0.00 0.00 27 1013.7
20210722233104 90 341 2.6 7.8 0.00 0.00 0.00 25 1013.6
20210722233015 90 343 1.7 7.8 0.00 0.00 0.00 27 1013.7
20210722232604 90 343 1.7 7.8 0.00 0.00 0.00 27 1013.7
20210722232106 89 358 4.3 10.4 0.00 0.00 0.00 25 1013.7
20210722232016 89 309 2.6 10.4 0.00 0.00 0.00 26 1013.7
20210722231605 89 309 2.6 10.4 0.00 0.00 0.00 26 1013.7
20210722231105 89 340 3.5 10.4 0.00 0.00 0.00 25 1013.8
20210722231015 89 302 2.6 7.8 0.00 0.00 0.00 27 1013.7
20210722230605 89 302 2.6 7.8 0.00 0.00 0.00 27 1013.7
20210722230104 89 320 1.7 8.7 0.00 0.00 0.00 26 1013.8
20210722230015 89 338 5.2 7.8 0.00 0.00 0.00 25 1013.9
20210722225605 89 338 5.2 7.8 0.00 0.00 0.00 25 1013.9
20210722225105 89 4 2.6 10.4 0.00 0.00 0.00 28 1013.8
20210722225015 89 5 5.2 10.4 0.00 0.00 0.00 27 1013.9
20210722224605 89 5 5.2 10.4 0.00 0.00 0.00 27 1013.9
20210722224104 89 355 4.3 10.4 0.00 0.00 0.00 27 1014.0
20210722224015 89 17 4.3 7.8 0.00 0.00 0.00 27 1014.0
20210722223604 89 17 4.3 7.8 0.00 0.00 0.00 27 1014.0
20210722223105 89 51 3.5 7.8 0.00 0.00 0.00 25 1014.0
20210722223015 88 51 3.5 7.8 0.00 0.00 0.00 27 1014.1
20210722222605 88 51 3.5 7.8 0.00 0.00 0.00 27 1014.1
20210722222104 88 38 2.6 7.8 0.00 0.00 0.00 26 1014.1
20210722222015 89 63 2.6 8.7 0.00 0.00 0.00 27 1014.2
20210722221605 89 63 2.6 8.7 0.00 0.00 0.00 27 1014.2
20210722221105 88 7 1.7 8.7 0.00 0.00 0.00 28 1014.2
20210722221014 88 11 0.9 2.6 0.00 0.00 0.00 29 1014.2
20210722220604 88 11 0.9 2.6 0.00 0.00 0.00 29 1014.2
20210722220105 87 13 2.6 7.8 0.00 0.00 0.00 28 1014.3
20210722220016 87 351 4.3 7.8 0.00 0.00 0.00 28 1014.3
20210722215605 87 351 4.3 7.8 0.00 0.00 0.00 28 1014.3
20210722215105 87 9 1.7 2.6 0.00 0.00 0.00 29 1014.4
20210722215014 87 9 1.7 7.0 0.00 0.00 0.00 25 1014.4
20210722214606 87 9 1.7 7.0 0.00 0.00 0.00 25 1014.4
20210722214105 86 17 0.9 7.0 0.00 0.00 0.00 29 1014.5
20210722214015 87 17 3.5 8.7 0.00 0.00 0.00 28 1014.5
20210722213605 87 17 3.5 8.7 0.00 0.00 0.00 28 1014.5
20210722213105 86 5 1.7 7.8 0.00 0.00 0.00 27 1014.5
20210722213015 84 356 0.9 7.0 0.00 0.00 0.00 31 1014.5
20210722212606 84 356 0.9 7.0 0.00 0.00 0.00 31 1014.5
20210722212105 85 357 2.6 7.8 0.00 0.00 0.00 28 1014.7
20210722212015 84 13 0.9 6.1 0.00 0.00 0.00 28 1014.6
20210722211605 84 13 0.9 6.1 0.00 0.00 0.00 28 1014.6
20210722211105 85 13 3.5 8.7 0.00 0.00 0.00 29 1014.7
20210722211015 84 64 1.7 4.3 0.00 0.00 0.00 32 1014.7
20210722210605 84 64 1.7 4.3 0.00 0.00 0.00 32 1014.7
20210722210105 83 64 0.9 2.6 0.00 0.00 0.00 31 1014.8
20210722210024 84 64 1.7 5.2 0.00 0.00 0.00 32 1014.9
20210722205605 84 64 1.7 5.2 0.00 0.00 0.00 32 1014.9
20210722205105 84 67 3.5 7.0 0.00 0.00 0.00 30 1014.9
20210722205015 84 57 0.9 4.3 0.00 0.00 0.00 32 1015.0
20210722204605 84 57 0.9 4.3 0.00 0.00 0.00 32 1015.0
20210722204105 84 58 1.7 5.2 0.00 0.00 0.00 31 1015.1
20210722204015 83 59 1.7 5.2 0.00 0.00 0.00 32 1015.2
20210722203605 83 59 1.7 5.2 0.00 0.00 0.00 32 1015.2
20210722203105 83 62 0.9 2.6 0.00 0.00 0.00 38 1015.2
20210722203015 82 63 0.9 7.8 0.00 0.00 0.00 34 1015.3
20210722202605 82 63 0.9 7.8 0.00 0.00 0.00 34 1015.3
20210722202105 82 74 4.3 7.0 0.00 0.00 0.00 32 1015.3
20210722202015 82 355 1.7 7.0 0.00 0.00 0.00 36 1015.3
20210722201604 82 355 1.7 7.0 0.00 0.00 0.00 36 1015.3
20210722201105 81 17 0.9 4.3 0.00 0.00 0.00 35 1015.3
20210722201015 81 13 0.9 4.3 0.00 0.00 0.00 39 1015.4
20210722200605 81 13 0.9 4.3 0.00 0.00 0.00 39 1015.4
20210722200105 82 20 1.7 4.3 0.00 0.00 0.00 41 1015.6
20210722200015 80 0 0.9 5.2 0.00 0.00 0.00 39 1015.5
20210722195605 80 0 0.9 5.2 0.00 0.00 0.00 39 1015.5
20210722195104 80 351 2.6 7.0 0.00 0.00 0.00 38 1015.7
20210722195015 80 11 2.6 7.0 0.00 0.00 0.00 37 1015.7
20210722194605 80 11 2.6 7.0 0.00 0.00 0.00 37 1015.7
20210722194105 79 17 0.9 2.6 0.00 0.00 0.00 43 1015.7
20210722194015 79 18 1.7 5.2 0.00 0.00 0.00 40 1015.9
20210722193604 79 18 1.7 5.2 0.00 0.00 0.00 40 1015.9
20210722193105 79 39 1.7 4.3 0.00 0.00 0.00 42 1015.9
20210722193015 78 9 2.6 5.2 0.00 0.00 0.00 40 1015.9
20210722192605 78 9 2.6 5.2 0.00 0.00 0.00 40 1015.9
20210722192105 77 355 0.9 2.6 0.00 0.00 0.00 40 1015.9
20210722192015 78 350 1.7 4.3 0.00 0.00 0.00 41 1016.0
20210722191605 78 350 1.7 4.3 0.00 0.00 0.00 41 1016.0
20210722191105 78 5 2.6 4.3 0.00 0.00 0.00 42 1016.0
20210722191016 77 36 1.7 4.3 0.00 0.00 0.00 44 1016.1
20210722190605 77 36 1.7 4.3 0.00 0.00 0.00 44 1016.1
20210722190105 76 342 0.9 5.2 0.00 0.00 0.00 43 1016.1
20210722190015 76 269 0.9 2.6 0.00 0.00 0.00 47 1016.2
20210722185605 76 269 0.9 2.6 0.00 0.00 0.00 47 1016.2
20210722185105 75 265 0.9 2.6 0.00 0.00 0.00 45 1016.2
20210722185015 74 259 0.0 2.6 0.00 0.00 0.00 45 1016.3
20210722184605 74 259 0.0 2.6 0.00 0.00 0.00 45 1016.3
20210722184104 75 342 1.7 2.6 0.00 0.00 0.00 45 1016.3
20210722184015 75 346 0.9 5.2 0.00 0.00 0.00 46 1016.4
20210722183605 75 346 0.9 5.2 0.00 0.00 0.00 46 1016.4
20210722183105 75 347 2.6 5.2 0.00 0.00 0.00 43 1016.3
20210722183015 74 354 1.7 5.2 0.00 0.00 0.00 45 1016.4
20210722182605 74 354 1.7 5.2 0.00 0.00 0.00 45 1016.4
20210722182105 74 12 1.7 4.3 0.00 0.00 0.00 43 1016.4
20210722182014 74 5 1.7 5.2 0.00 0.00 0.00 50 1016.4
20210722181605 74 5 1.7 5.2 0.00 0.00 0.00 50 1016.4
20210722181105 73 1 0.9 2.6 0.00 0.00 0.00 48 1016.4
20210722181015 72 6 2.6 7.8 0.00 0.00 0.00 46 1016.4
20210722180605 72 6 2.6 7.8 0.00 0.00 0.00 46 1016.4
20210722180105 73 329 1.7 4.3 0.00 0.00 0.00 47 1016.6
20210722180015 73 325 0.9 4.3 0.00 0.00 0.00 51 1016.6
20210722175605 73 325 0.9 4.3 0.00 0.00 0.00 51 1016.6
20210722175105 71 311 0.0 4.3 0.00 0.00 0.00 51 1016.6
20210722175015 71 303 0.9 2.6 0.00 0.00 0.00 49 1016.7
20210722174605 71 303 0.9 2.6 0.00 0.00 0.00 49 1016.7
20210722174105 71 304 1.7 2.6 0.00 0.00 0.00 48 1016.7
20210722174015 70 302 0.0 2.6 0.00 0.00 0.00 50 1016.7
20210722173604 70 302 0.0 2.6 0.00 0.00 0.00 50 1016.7
20210722173105 70 302 0.0 2.6 0.00 0.00 0.00 49 1016.7
20210722173015 70 300 0.9 4.3 0.00 0.00 0.00 49 1016.8
20210722172605 70 300 0.9 4.3 0.00 0.00 0.00 49 1016.8
20210722172104 68 294 0.0 0.9 0.00 0.00 0.00 52 1016.8
20210722172015 69 296 0.0 1.7 0.00 0.00 0.00 52 1016.8
20210722171605 69 296 0.0 1.7 0.00 0.00 0.00 52 1016.8
20210722171105 68 296 0.0 2.6 0.00 0.00 0.00 50 1016.8
20210722171015 67 291 0.0 2.6 0.00 0.00 0.00 53 1016.8
20210722170605 67 291 0.0 2.6 0.00 0.00 0.00 53 1016.8
20210722170105 68 294 0.0 2.6 0.00 0.00 0.00 53 1016.9
20210722170015 68 280 0.0 2.6 0.00 0.00 0.00 52 1016.9
20210722165605 68 280 0.0 2.6 0.00 0.00 0.00 52 1016.9
20210722165104 67 5 0.0 0.0 0.00 0.00 0.00 58 1016.9
20210722165014 66 5 0.0 2.6 0.00 0.00 0.00 54 1017.0
20210722164605 66 5 0.0 2.6 0.00 0.00 0.00 54 1017.0
20210722164105 67 9 0.0 4.3 0.00 0.00 0.00 53 1017.0
20210722164015 67 15 0.9 2.6 0.00 0.00 0.00 54 1016.9
20210722163605 67 15 0.9 2.6 0.00 0.00 0.00 54 1016.9
20210722163105 65 5 1.7 4.3 0.00 0.00 0.00 58 1017.0
20210722163015 65 26 1.7 4.3 0.00 0.00 0.00 55 1017.1
20210722162605 65 26 1.7 4.3 0.00 0.00 0.00 55 1017.1
20210722162105 65 15 0.9 2.6 0.00 0.00 0.00 56 1017.1
20210722162015 65 18 0.0 0.0 0.00 0.00 0.00 55 1017.1